Time,TemperatureF,DewpointF,PressureIn,WindDirection,WindDirectionDegrees,WindSpeedMPH,WindSpeedGustMPH,Humidity,HourlyPrecipIn,Conditions,Clouds,dailyrainin,SoftwareType,DateUTC
2017-01-16 00:04:00,23.5,21.0,30.36,SSE,157,0.0,0.0,84,0.00,,,0.00,Rainwise IP-100,2017-01-16 05:04:00,
2017-01-16 00:09:00,23.0,18.0,30.36,SSE,157,1.6,1.6,84,0.00,,,0.00,Rainwise IP-100,2017-01-16 05:09:00,
2017-01-16 00:14:00,22.5,18.0,30.36,SSE,157,1.6,1.6,84,0.00,,,0.00,Rainwise IP-100,2017-01-16 05:14:00,
2017-01-16 00:19:00,22.1,18.0,30.36,SSE,157,0.0,1.0,84,0.00,,,0.00,Rainwise IP-100,2017-01-16 05:19:00,
2017-01-16 00:24:00,22.0,18.0,30.36,SSE,157,0.0,0.0,85,0.00,,,0.00,Rainwise IP-100,2017-01-16 05:24:00,
2017-01-16 00:29:00,22.0,18.0,30.36,SSE,157,0.0,0.0,85,0.00,,,0.00,Rainwise IP-100,2017-01-16 05:29:00,
2017-01-16 00:34:00,22.0,18.0,30.36,ENE,67,1.4,1.4,86,0.00,,,0.00,Rainwise IP-100,2017-01-16 05:34:00,
2017-01-16 00:39:00,22.4,18.0,30.36,ENE,67,0.0,1.0,87,0.00,,,0.00,Rainwise IP-100,2017-01-16 05:39:00,
2017-01-16 00:44:00,22.6,21.0,30.36,ENE,67,1.6,1.6,88,0.00,,,0.00,Rainwise IP-100,2017-01-16 05:44:00,
2017-01-16 00:49:00,22.5,21.0,30.36,ENE,67,0.0,2.0,88,0.00,,,0.00,Rainwise IP-100,2017-01-16 05:49:00,
2017-01-16 00:59:00,22.7,21.0,30.36,ENE,67,1.2,2.0,88,0.00,,,0.00,Rainwise IP-100,2017-01-16 05:59:00,
2017-01-16 01:04:00,23.0,21.0,30.36,ENE,67,0.0,1.0,88,0.00,,,0.00,Rainwise IP-100,2017-01-16 06:04:00,
2017-01-16 01:09:00,22.8,21.0,30.36,ENE,67,0.0,0.0,88,0.00,,,0.00,Rainwise IP-100,2017-01-16 06:09:00,
2017-01-16 01:14:00,22.2,21.0,30.36,ENE,67,0.0,0.0,88,0.00,,,0.00,Rainwise IP-100,2017-01-16 06:14:00,
2017-01-16 01:19:00,21.7,21.0,30.36,ENE,67,0.0,0.0,88,0.00,,,0.00,Rainwise IP-100,2017-01-16 06:19:00,
2017-01-16 01:24:00,21.4,18.0,30.36,SSE,157,1.9,2.0,88,0.00,,,0.00,Rainwise IP-100,2017-01-16 06:24:00,
2017-01-16 01:29:00,21.3,18.0,30.37,SSE,157,0.0,2.0,88,0.00,,,0.00,Rainwise IP-100,2017-01-16 06:29:00,
2017-01-16 01:34:00,21.4,18.0,30.36,SSE,157,0.0,0.0,88,0.00,,,0.00,Rainwise IP-100,2017-01-16 06:34:00,
2017-01-16 01:39:00,21.5,21.0,30.37,SSE,157,0.0,0.0,89,0.00,,,0.00,Rainwise IP-100,2017-01-16 06:39:00,
2017-01-16 01:44:00,21.3,18.0,30.37,SSE,157,0.0,1.0,89,0.00,,,0.00,Rainwise IP-100,2017-01-16 06:44:00,
2017-01-16 01:49:00,21.2,18.0,30.37,SSE,157,1.2,1.2,90,0.00,,,0.00,Rainwise IP-100,2017-01-16 06:49:00,
2017-01-16 01:54:00,21.0,18.0,30.37,SSE,157,1.2,1.2,90,0.00,,,0.00,Rainwise IP-100,2017-01-16 06:54:00,
2017-01-16 01:59:00,20.9,18.0,30.37,SSE,157,1.6,1.6,89,0.00,,,0.00,Rainwise IP-100,2017-01-16 06:59:00,
2017-01-16 02:04:00,20.8,18.0,30.37,South,180,2.1,2.1,89,0.00,,,0.00,Rainwise IP-100,2017-01-16 07:04:00,
2017-01-16 02:09:00,20.8,18.0,30.38,South,180,2.6,2.6,89,0.00,,,0.00,Rainwise IP-100,2017-01-16 07:09:00,
2017-01-16 02:14:00,20.7,18.0,30.38,South,180,2.3,3.0,89,0.00,,,0.00,Rainwise IP-100,2017-01-16 07:14:00,
2017-01-16 02:19:00,20.7,18.0,30.38,South,180,1.9,2.0,89,0.00,,,0.00,Rainwise IP-100,2017-01-16 07:19:00,
2017-01-16 02:24:00,20.9,18.0,30.37,SSE,157,1.4,2.0,90,0.00,,,0.00,Rainwise IP-100,2017-01-16 07:24:00,
2017-01-16 02:29:00,20.9,18.0,30.38,SSE,157,1.2,1.2,90,0.00,,,0.00,Rainwise IP-100,2017-01-16 07:29:00,
2017-01-16 02:34:00,20.9,18.0,30.38,South,180,2.6,2.6,90,0.00,,,0.00,Rainwise IP-100,2017-01-16 07:34:00,
2017-01-16 02:39:00,20.7,18.0,30.38,SSE,157,2.6,3.0,90,0.00,,,0.00,Rainwise IP-100,2017-01-16 07:39:00,
2017-01-16 02:44:00,20.9,18.0,30.37,SE,135,2.3,2.3,90,0.00,,,0.00,Rainwise IP-100,2017-01-16 07:44:00,
2017-01-16 02:49:00,21.3,18.0,30.38,East,90,1.9,3.0,90,0.00,,,0.00,Rainwise IP-100,2017-01-16 07:49:00,
2017-01-16 02:54:00,21.5,21.0,30.38,East,90,0.0,2.0,90,0.00,,,0.00,Rainwise IP-100,2017-01-16 07:54:00,
2017-01-16 02:59:00,21.4,18.0,30.37,East,90,1.4,1.4,90,0.00,,,0.00,Rainwise IP-100,2017-01-16 07:59:00,
2017-01-16 03:04:00,21.7,21.0,30.37,ENE,67,2.8,2.8,90,0.00,,,0.00,Rainwise IP-100,2017-01-16 08:04:00,
2017-01-16 03:09:00,22.1,21.0,30.37,ENE,67,2.1,2.1,90,0.00,,,0.00,Rainwise IP-100,2017-01-16 08:09:00,
2017-01-16 03:14:00,22.2,21.0,30.37,ENE,67,3.0,3.0,90,0.00,,,0.00,Rainwise IP-100,2017-01-16 08:14:00,
2017-01-16 03:19:00,22.0,21.0,30.37,SSW,202,2.1,3.0,90,0.00,,,0.00,Rainwise IP-100,2017-01-16 08:19:00,
2017-01-16 03:24:00,21.6,21.0,30.37,SSW,202,0.0,2.0,89,0.00,,,0.00,Rainwise IP-100,2017-01-16 08:24:00,
2017-01-16 03:29:00,20.9,18.0,30.37,South,180,1.2,2.0,89,0.00,,,0.00,Rainwise IP-100,2017-01-16 08:29:00,
2017-01-16 03:34:00,20.3,18.0,30.36,South,180,1.4,2.0,89,0.00,,,0.00,Rainwise IP-100,2017-01-16 08:34:00,
2017-01-16 03:39:00,19.9,18.0,30.36,South,180,1.6,2.0,90,0.00,,,0.00,Rainwise IP-100,2017-01-16 08:39:00,
2017-01-16 03:44:00,19.7,18.0,30.37,South,180,0.0,2.0,90,0.00,,,0.00,Rainwise IP-100,2017-01-16 08:44:00,
2017-01-16 03:49:00,19.6,18.0,30.36,South,180,1.6,1.6,90,0.00,,,0.00,Rainwise IP-100,2017-01-16 08:49:00,
2017-01-16 03:54:00,19.7,18.0,30.36,South,180,1.6,2.0,91,0.00,,,0.00,Rainwise IP-100,2017-01-16 08:54:00,
2017-01-16 03:59:00,19.6,18.0,30.37,South,180,1.2,1.2,91,0.00,,,0.00,Rainwise IP-100,2017-01-16 08:59:00,
2017-01-16 04:04:00,19.8,18.0,30.37,South,180,0.0,1.0,91,0.00,,,0.00,Rainwise IP-100,2017-01-16 09:04:00,
2017-01-16 04:09:00,20.0,18.0,30.37,South,180,0.0,0.0,91,0.00,,,0.00,Rainwise IP-100,2017-01-16 09:09:00,
2017-01-16 04:14:00,20.0,18.0,30.37,South,180,0.0,0.0,92,0.00,,,0.00,Rainwise IP-100,2017-01-16 09:14:00,
2017-01-16 04:19:00,19.7,18.0,30.37,South,180,0.0,0.0,91,0.00,,,0.00,Rainwise IP-100,2017-01-16 09:19:00,
2017-01-16 04:24:00,19.4,18.0,30.37,South,180,1.9,0.0,91,0.00,,,0.00,Rainwise IP-100,2017-01-16 09:24:00,
2017-01-16 04:29:00,19.0,18.0,30.37,South,180,1.9,2.0,91,0.00,,,0.00,Rainwise IP-100,2017-01-16 09:29:00,
2017-01-16 04:34:00,18.6,18.0,30.37,South,180,2.3,2.3,91,0.00,,,0.00,Rainwise IP-100,2017-01-16 09:34:00,
2017-01-16 04:39:00,18.5,18.0,30.38,South,180,3.3,3.3,91,0.00,,,0.00,Rainwise IP-100,2017-01-16 09:39:00,
2017-01-16 04:49:00,18.5,18.0,30.37,South,180,1.6,3.0,92,0.00,,,0.00,Rainwise IP-100,2017-01-16 09:49:00,
2017-01-16 04:54:00,18.7,18.0,30.38,SSE,157,1.4,2.0,92,0.00,,,0.00,Rainwise IP-100,2017-01-16 09:54:00,
2017-01-16 04:59:00,18.9,18.0,30.38,SSE,157,1.6,1.6,92,0.00,,,0.00,Rainwise IP-100,2017-01-16 09:59:00,
2017-01-16 05:04:00,18.9,18.0,30.38,SSE,157,0.0,1.0,92,0.00,,,0.00,Rainwise IP-100,2017-01-16 10:04:00,
2017-01-16 05:09:00,19.0,18.0,30.38,SSE,157,0.0,0.0,92,0.00,,,0.00,Rainwise IP-100,2017-01-16 10:09:00,
2017-01-16 05:14:00,18.9,18.0,30.38,SSE,157,0.0,0.0,92,0.00,,,0.00,Rainwise IP-100,2017-01-16 10:14:00,
2017-01-16 05:19:00,18.4,16.0,30.38,SSE,157,0.0,1.0,92,0.00,,,0.00,Rainwise IP-100,2017-01-16 10:19:00,
2017-01-16 05:25:00,18.1,16.0,30.37,SSE,157,0.0,0.0,92,0.00,,,0.00,Rainwise IP-100,2017-01-16 10:25:00,
2017-01-16 05:30:00,18.0,16.0,30.38,SSE,157,0.0,0.0,92,0.00,,,0.00,Rainwise IP-100,2017-01-16 10:30:00,
2017-01-16 05:35:00,18.0,16.0,30.38,SSE,157,0.0,0.0,92,0.00,,,0.00,Rainwise IP-100,2017-01-16 10:35:00,
2017-01-16 05:40:00,18.5,18.0,30.37,SSE,157,0.0,0.0,93,0.00,,,0.00,Rainwise IP-100,2017-01-16 10:40:00,
2017-01-16 05:45:00,19.2,18.0,30.38,SSE,157,0.0,0.0,93,0.00,,,0.00,Rainwise IP-100,2017-01-16 10:45:00,
2017-01-16 05:50:00,19.3,18.0,30.38,SSE,157,0.0,0.0,94,0.00,,,0.00,Rainwise IP-100,2017-01-16 10:50:00,
2017-01-16 05:55:00,18.8,18.0,30.38,SSE,157,0.0,0.0,93,0.00,,,0.00,Rainwise IP-100,2017-01-16 10:55:00,
2017-01-16 06:00:00,18.4,16.0,30.38,SSE,157,0.0,1.0,93,0.00,,,0.00,Rainwise IP-100,2017-01-16 11:00:00,
2017-01-16 06:05:00,18.3,16.0,30.38,SSE,157,0.0,0.0,93,0.00,,,0.00,Rainwise IP-100,2017-01-16 11:05:00,
2017-01-16 06:10:00,18.3,16.0,30.38,SSE,157,1.9,2.0,93,0.00,,,0.00,Rainwise IP-100,2017-01-16 11:10:00,
2017-01-16 06:15:00,18.0,16.0,30.38,SSE,157,1.4,2.0,93,0.00,,,0.00,Rainwise IP-100,2017-01-16 11:15:00,
2017-01-16 06:20:00,17.6,16.0,30.38,SSE,157,2.1,2.1,93,0.00,,,0.00,Rainwise IP-100,2017-01-16 11:20:00,
2017-01-16 06:25:00,17.4,16.0,30.38,SSE,157,2.1,2.1,93,0.00,,,0.00,Rainwise IP-100,2017-01-16 11:25:00,
2017-01-16 06:30:00,17.2,16.0,30.39,SSE,157,2.6,2.6,93,0.00,,,0.00,Rainwise IP-100,2017-01-16 11:30:00,
2017-01-16 06:35:00,17.0,16.0,30.39,SSE,157,2.1,2.1,93,0.00,,,0.00,Rainwise IP-100,2017-01-16 11:35:00,
2017-01-16 06:40:00,17.2,16.0,30.39,South,180,2.6,2.6,93,0.00,,,0.00,Rainwise IP-100,2017-01-16 11:40:00,
2017-01-16 06:45:00,17.4,16.0,30.39,South,180,0.0,2.0,93,0.00,,,0.00,Rainwise IP-100,2017-01-16 11:45:00,
2017-01-16 06:50:00,17.6,16.0,30.39,SSE,157,0.0,1.0,93,0.00,,,0.00,Rainwise IP-100,2017-01-16 11:50:00,
2017-01-16 06:55:00,18.2,16.0,30.39,ENE,67,3.5,3.5,94,0.00,,,0.00,Rainwise IP-100,2017-01-16 11:55:00,
2017-01-16 07:00:00,18.4,16.0,30.39,ENE,67,4.4,4.4,93,0.00,,,0.00,Rainwise IP-100,2017-01-16 12:00:00,
2017-01-16 07:05:00,18.3,16.0,30.39,ENE,67,0.0,4.0,93,0.00,,,0.00,Rainwise IP-100,2017-01-16 12:05:00,
2017-01-16 07:10:00,18.2,16.0,30.39,ENE,67,2.6,3.0,93,0.00,,,0.00,Rainwise IP-100,2017-01-16 12:10:00,
2017-01-16 07:15:00,18.2,16.0,30.39,ENE,67,1.2,2.0,93,0.00,,,0.00,Rainwise IP-100,2017-01-16 12:15:00,
2017-01-16 07:20:00,18.4,16.0,30.39,ENE,67,0.0,1.0,94,0.00,,,0.00,Rainwise IP-100,2017-01-16 12:20:00,
2017-01-16 07:25:00,18.2,16.0,30.39,ENE,67,0.0,0.0,94,0.00,,,0.00,Rainwise IP-100,2017-01-16 12:25:00,
2017-01-16 07:30:00,17.7,16.0,30.38,ENE,67,0.0,0.0,94,0.00,,,0.00,Rainwise IP-100,2017-01-16 12:30:00,
2017-01-16 07:35:00,17.1,16.0,30.38,SSE,157,2.1,2.1,94,0.00,,,0.00,Rainwise IP-100,2017-01-16 12:35:00,
2017-01-16 07:40:00,16.8,16.0,30.39,SSE,157,2.6,2.6,94,0.00,,,0.00,Rainwise IP-100,2017-01-16 12:40:00,
2017-01-16 07:45:00,16.7,16.0,30.39,SSE,157,2.1,2.1,94,0.00,,,0.00,Rainwise IP-100,2017-01-16 12:45:00,
2017-01-16 07:50:00,16.7,16.0,30.39,SSE,157,2.6,3.0,94,0.00,,,0.00,Rainwise IP-100,2017-01-16 12:50:00,
2017-01-16 07:55:00,17.0,16.0,30.39,SSE,157,0.0,2.0,94,0.00,,,0.00,Rainwise IP-100,2017-01-16 12:55:00,
2017-01-16 08:00:00,17.5,16.0,30.39,SSE,157,0.0,1.0,94,0.00,,,0.00,Rainwise IP-100,2017-01-16 13:00:00,
2017-01-16 08:05:00,18.0,16.0,30.39,SSE,157,2.1,2.1,94,0.00,,,0.00,Rainwise IP-100,2017-01-16 13:05:00,
2017-01-16 08:10:00,18.5,18.0,30.39,SE,135,1.6,2.0,94,0.00,,,0.00,Rainwise IP-100,2017-01-16 13:10:00,
2017-01-16 08:15:00,18.7,18.0,30.39,SE,135,0.0,1.0,94,0.00,,,0.00,Rainwise IP-100,2017-01-16 13:15:00,
2017-01-16 08:20:00,19.1,18.0,30.39,SE,135,0.0,0.0,94,0.00,,,0.00,Rainwise IP-100,2017-01-16 13:20:00,
2017-01-16 08:25:00,19.5,18.0,30.39,SE,135,0.0,0.0,94,0.00,,,0.00,Rainwise IP-100,2017-01-16 13:25:00,
2017-01-16 08:30:00,19.9,18.0,30.39,SE,135,0.0,0.0,94,0.00,,,0.00,Rainwise IP-100,2017-01-16 13:30:00,
2017-01-16 08:35:00,20.4,18.0,30.39,SE,135,0.0,0.0,94,0.00,,,0.00,Rainwise IP-100,2017-01-16 13:35:00,
2017-01-16 08:40:00,20.8,18.0,30.40,SE,135,0.0,0.0,94,0.00,,,0.00,Rainwise IP-100,2017-01-16 13:40:00,
2017-01-16 08:45:00,20.8,18.0,30.40,SE,135,0.0,0.0,93,0.00,,,0.00,Rainwise IP-100,2017-01-16 13:45:00,
2017-01-16 08:50:00,20.9,18.0,30.40,SE,135,0.0,0.0,93,0.00,,,0.00,Rainwise IP-100,2017-01-16 13:50:00,
2017-01-16 08:55:00,21.2,18.0,30.40,SE,135,0.0,1.0,94,0.00,,,0.00,Rainwise IP-100,2017-01-16 13:55:00,
2017-01-16 09:00:00,21.5,21.0,30.40,SE,135,0.0,1.0,94,0.00,,,0.00,Rainwise IP-100,2017-01-16 14:00:00,
2017-01-16 09:05:00,21.8,21.0,30.40,SE,135,0.0,0.0,94,0.00,,,0.00,Rainwise IP-100,2017-01-16 14:05:00,
2017-01-16 09:10:00,22.2,21.0,30.40,SE,135,0.0,0.0,94,0.00,,,0.00,Rainwise IP-100,2017-01-16 14:10:00,
2017-01-16 09:15:00,22.8,21.0,30.41,SE,135,0.0,0.0,94,0.00,,,0.00,Rainwise IP-100,2017-01-16 14:15:00,
2017-01-16 09:20:00,23.4,21.0,30.41,SE,135,0.0,0.0,94,0.00,,,0.00,Rainwise IP-100,2017-01-16 14:20:00,
2017-01-16 09:25:00,23.9,23.0,30.41,SE,135,0.0,0.0,93,0.00,,,0.00,Rainwise IP-100,2017-01-16 14:25:00,
2017-01-16 09:30:00,24.3,23.0,30.41,SE,135,0.0,0.0,93,0.00,,,0.00,Rainwise IP-100,2017-01-16 14:30:00,
2017-01-16 09:35:00,25.0,24.0,30.41,SE,135,0.0,0.0,93,0.00,,,0.00,Rainwise IP-100,2017-01-16 14:35:00,
2017-01-16 09:40:00,25.8,24.0,30.41,South,180,0.0,0.0,93,0.00,,,0.00,Rainwise IP-100,2017-01-16 14:40:00,
2017-01-16 09:45:00,26.1,24.0,30.41,South,180,0.0,0.0,92,0.00,,,0.00,Rainwise IP-100,2017-01-16 14:45:00,
2017-01-16 09:50:00,26.4,24.0,30.40,North,360,0.0,3.0,92,0.00,,,0.00,Rainwise IP-100,2017-01-16 14:50:00,
2017-01-16 09:55:00,27.0,26.0,30.41,NE,45,1.4,3.0,91,0.00,,,0.00,Rainwise IP-100,2017-01-16 14:55:00,
2017-01-16 10:00:00,27.5,26.0,30.41,NNE,22,0.0,2.0,90,0.00,,,0.00,Rainwise IP-100,2017-01-16 15:00:00,
2017-01-16 10:05:00,27.9,26.0,30.41,NNE,22,0.0,3.0,90,0.00,,,0.00,Rainwise IP-100,2017-01-16 15:05:00,
2017-01-16 10:10:00,28.6,26.0,30.41,NNE,22,0.0,1.0,90,0.00,,,0.00,Rainwise IP-100,2017-01-16 15:10:00,
2017-01-16 10:15:00,29.4,26.0,30.41,NE,45,0.0,2.0,89,0.00,,,0.00,Rainwise IP-100,2017-01-16 15:15:00,
2017-01-16 10:20:00,30.2,28.0,30.41,NNE,22,0.0,2.0,88,0.00,,,0.00,Rainwise IP-100,2017-01-16 15:20:00,
2017-01-16 10:25:00,30.8,28.0,30.41,ENE,67,1.2,2.0,87,0.00,,,0.00,Rainwise IP-100,2017-01-16 15:25:00,
2017-01-16 10:30:00,31.1,28.0,30.41,ENE,67,0.0,2.0,86,0.00,,,0.00,Rainwise IP-100,2017-01-16 15:30:00,
2017-01-16 10:35:00,31.5,28.0,30.41,ENE,67,1.6,2.0,85,0.00,,,0.00,Rainwise IP-100,2017-01-16 15:35:00,
2017-01-16 10:40:00,31.5,28.0,30.41,ENE,67,0.0,2.0,84,0.00,,,0.00,Rainwise IP-100,2017-01-16 15:40:00,
2017-01-16 10:45:00,31.6,28.0,30.41,ENE,67,0.0,1.0,84,0.00,,,0.00,Rainwise IP-100,2017-01-16 15:45:00,
2017-01-16 10:50:00,31.9,28.0,30.41,NNE,22,0.0,1.0,85,0.00,,,0.00,Rainwise IP-100,2017-01-16 15:50:00,
2017-01-16 10:55:00,32.0,28.0,30.41,NNE,22,0.0,1.0,85,0.00,,,0.00,Rainwise IP-100,2017-01-16 15:55:00,
2017-01-16 11:00:00,32.0,28.0,30.41,NNE,22,1.6,2.0,84,0.00,,,0.00,Rainwise IP-100,2017-01-16 16:00:00,
2017-01-16 11:05:00,32.0,28.0,30.40,NE,45,2.1,3.0,84,0.00,,,0.00,Rainwise IP-100,2017-01-16 16:05:00,
2017-01-16 11:10:00,32.0,28.0,30.41,NNE,22,2.3,3.0,83,0.00,,,0.00,Rainwise IP-100,2017-01-16 16:10:00,
2017-01-16 11:15:00,32.0,28.0,30.41,NNE,22,2.3,4.0,83,0.00,,,0.00,Rainwise IP-100,2017-01-16 16:15:00,
2017-01-16 11:20:00,31.9,28.0,30.40,NNE,22,2.3,3.0,82,0.00,,,0.00,Rainwise IP-100,2017-01-16 16:20:00,
2017-01-16 11:25:00,32.0,28.0,30.39,NNE,22,1.9,3.0,82,0.00,,,0.00,Rainwise IP-100,2017-01-16 16:25:00,
2017-01-16 11:30:00,32.0,28.0,30.39,ENE,67,0.0,3.0,82,0.00,,,0.00,Rainwise IP-100,2017-01-16 16:30:00,
2017-01-16 11:35:00,32.1,28.0,30.39,ENE,67,1.6,3.0,81,0.00,,,0.00,Rainwise IP-100,2017-01-16 16:35:00,
2017-01-16 11:40:00,32.4,28.0,30.39,ENE,67,1.2,2.0,81,0.00,,,0.00,Rainwise IP-100,2017-01-16 16:40:00,
2017-01-16 11:45:00,32.8,28.0,30.39,ENE,67,0.0,2.0,81,0.00,,,0.00,Rainwise IP-100,2017-01-16 16:45:00,
2017-01-16 11:50:00,33.0,28.0,30.38,ENE,67,0.0,2.0,80,0.00,,,0.00,Rainwise IP-100,2017-01-16 16:50:00,
2017-01-16 11:55:00,33.2,28.0,30.38,ESE,112,0.0,2.0,80,0.00,,,0.00,Rainwise IP-100,2017-01-16 16:55:00,
2017-01-16 12:00:00,33.5,29.0,30.38,ESE,112,0.0,2.0,79,0.00,,,0.00,Rainwise IP-100,2017-01-16 17:00:00,
2017-01-16 12:05:00,34.0,29.0,30.37,ESE,112,0.0,1.0,80,0.00,,,0.00,Rainwise IP-100,2017-01-16 17:05:00,
2017-01-16 12:10:00,34.4,29.0,30.37,SSE,157,0.0,1.0,81,0.00,,,0.00,Rainwise IP-100,2017-01-16 17:10:00,
2017-01-16 12:15:00,34.8,29.0,30.37,SSE,157,1.2,2.0,81,0.00,,,0.00,Rainwise IP-100,2017-01-16 17:15:00,
2017-01-16 12:20:00,35.1,29.0,30.36,ESE,112,2.3,2.3,82,0.00,,,0.00,Rainwise IP-100,2017-01-16 17:20:00,
2017-01-16 12:25:00,35.3,29.0,30.36,ESE,112,0.0,3.0,81,0.00,,,0.00,Rainwise IP-100,2017-01-16 17:25:00,
2017-01-16 12:30:00,35.5,31.0,30.35,ESE,112,1.4,3.0,80,0.00,,,0.00,Rainwise IP-100,2017-01-16 17:30:00,
2017-01-16 12:35:00,35.7,31.0,30.35,SSE,157,0.0,2.0,79,0.00,,,0.00,Rainwise IP-100,2017-01-16 17:35:00,
2017-01-16 12:40:00,36.0,29.0,30.35,South,180,0.0,3.0,78,0.00,,,0.00,Rainwise IP-100,2017-01-16 17:40:00,
2017-01-16 12:45:00,36.2,29.0,30.35,SW,225,3.0,6.0,76,0.00,,,0.00,Rainwise IP-100,2017-01-16 17:45:00,
2017-01-16 12:50:00,36.2,28.0,30.35,SSW,202,2.6,6.0,72,0.00,,,0.00,Rainwise IP-100,2017-01-16 17:50:00,
2017-01-16 12:55:00,36.1,28.0,30.34,SSW,202,0.0,6.0,70,0.00,,,0.00,Rainwise IP-100,2017-01-16 17:55:00,
2017-01-16 13:00:00,36.3,28.0,30.34,SSE,157,3.0,3.0,70,0.00,,,0.00,Rainwise IP-100,2017-01-16 18:00:00,
2017-01-16 13:05:00,36.5,28.0,30.34,SE,135,1.9,4.0,69,0.00,,,0.00,Rainwise IP-100,2017-01-16 18:05:00,
2017-01-16 13:10:00,36.5,28.0,30.34,SE,135,2.6,4.0,68,0.00,,,0.00,Rainwise IP-100,2017-01-16 18:10:00,
2017-01-16 13:15:00,36.4,26.0,30.34,SSW,202,3.5,6.0,68,0.00,,,0.00,Rainwise IP-100,2017-01-16 18:15:00,
2017-01-16 13:20:00,36.4,26.0,30.33,SSE,157,3.5,5.0,67,0.00,,,0.00,Rainwise IP-100,2017-01-16 18:20:00,
2017-01-16 13:25:00,36.5,28.0,30.33,South,180,0.0,6.0,67,0.00,,,0.00,Rainwise IP-100,2017-01-16 18:25:00,
2017-01-16 13:30:00,36.5,28.0,30.33,SSW,202,4.0,4.0,66,0.00,,,0.00,Rainwise IP-100,2017-01-16 18:30:00,
2017-01-16 13:35:00,36.5,28.0,30.33,SSW,202,3.7,6.0,66,0.00,,,0.00,Rainwise IP-100,2017-01-16 18:35:00,
2017-01-16 13:40:00,36.4,26.0,30.33,SSW,202,1.9,6.0,66,0.00,,,0.00,Rainwise IP-100,2017-01-16 18:40:00,
2017-01-16 13:45:00,36.4,26.0,30.32,SSW,202,5.6,6.0,66,0.00,,,0.00,Rainwise IP-100,2017-01-16 18:45:00,
2017-01-16 13:50:00,36.1,26.0,30.32,SSW,202,4.7,8.0,66,0.00,,,0.00,Rainwise IP-100,2017-01-16 18:50:00,
2017-01-16 13:55:00,36.0,26.0,30.31,SSW,202,4.7,7.0,66,0.00,,,0.00,Rainwise IP-100,2017-01-16 18:55:00,
2017-01-16 14:00:00,36.2,26.0,30.31,SSE,157,2.8,6.0,66,0.00,,,0.00,Rainwise IP-100,2017-01-16 19:00:00,
2017-01-16 14:05:00,36.2,26.0,30.31,SSE,157,1.6,3.0,67,0.00,,,0.00,Rainwise IP-100,2017-01-16 19:05:00,
2017-01-16 14:10:00,36.3,26.0,30.32,SE,135,1.4,4.0,67,0.00,,,0.00,Rainwise IP-100,2017-01-16 19:10:00,
2017-01-16 14:15:00,36.4,26.0,30.32,SW,225,0.0,2.0,67,0.00,,,0.00,Rainwise IP-100,2017-01-16 19:15:00,
2017-01-16 14:20:00,36.8,28.0,30.32,SSE,157,2.3,2.3,67,0.00,,,0.00,Rainwise IP-100,2017-01-16 19:20:00,
2017-01-16 14:25:00,37.0,28.0,30.32,SE,135,2.8,3.0,67,0.00,,,0.00,Rainwise IP-100,2017-01-16 19:25:00,
2017-01-16 14:30:00,36.9,28.0,30.32,SE,135,2.3,3.0,67,0.00,,,0.00,Rainwise IP-100,2017-01-16 19:30:00,
2017-01-16 14:35:00,36.8,28.0,30.32,ESE,112,2.3,3.0,67,0.00,,,0.00,Rainwise IP-100,2017-01-16 19:35:00,
2017-01-16 14:40:00,36.8,28.0,30.33,ESE,112,0.0,3.0,67,0.00,,,0.00,Rainwise IP-100,2017-01-16 19:40:00,
2017-01-16 14:45:00,36.8,28.0,30.32,ESE,112,3.3,3.3,67,0.00,,,0.00,Rainwise IP-100,2017-01-16 19:45:00,
2017-01-16 14:50:00,36.7,28.0,30.32,SE,135,3.0,5.0,66,0.00,,,0.00,Rainwise IP-100,2017-01-16 19:50:00,
2017-01-16 14:55:00,36.4,26.0,30.32,ESE,112,3.3,4.0,66,0.00,,,0.00,Rainwise IP-100,2017-01-16 19:55:00,
2017-01-16 15:00:00,36.4,26.0,30.32,SSE,157,3.5,4.0,66,0.00,,,0.00,Rainwise IP-100,2017-01-16 20:00:00,
2017-01-16 15:05:00,36.4,26.0,30.32,SE,135,0.0,4.0,66,0.00,,,0.00,Rainwise IP-100,2017-01-16 20:05:00,